This demonstration page uses our WeatherBlox Daily Observations layout. Learn more.

Hourly Observations for August 14, 2020

Temp ( °F °C ) Dew Point ( °F °C ) Humidity (%) Winds ( mph kmh ) Pressure ( in mb ) Visibility ( mi km ) Precip ( " mm )
12:15 am 00:15 Mostly Cloudy 70 21 68 20 94 94 NE 5 7 30.05 1018 10 16.0934 0 0
12:35 am 00:35 Clear 70 21 68 20 94 94 NNE 5 7 30.05 1018 10 16.0934 0 0
12:55 am 00:55 Clear 68 20 68 20 100 100 NE 5 7 30.04 1017 10 16.0934 0 0
1:15 am 01:15 Clear 68 20 68 20 100 100 Calm 30.04 1017 10 16.0934 0 0
1:35 am 01:35 Clear 68 20 68 20 100 100 Calm 30.04 1017 10 16.0934 0 0
1:55 am 01:55 Partly Cloudy 68 20 68 20 100 100 Calm 30.04 1017 10 16.0934 0 0
2:15 am 02:15 Mostly Cloudy 68 20 68 20 100 100 NNE 3 6 30.03 1017 10 16.0934 0 0
2:35 am 02:35 Mostly Cloudy 68 20 68 20 100 100 NNE 5 7 30.03 1017 10 16.0934 0 0
2:55 am 02:55 Partly Cloudy 66 19 66 19 100 100 NNE 3 6 30.02 1017 10 16.0934 0 0
3:15 am 03:15 Mostly Cloudy 66 19 66 19 100 100 N 8 13 30.02 1017 10 16.0934 0 0
3:35 am 03:35 Partly Cloudy 66 19 66 19 100 100 NNE 6 9 30.01 1016 10 16.0934 0 0
3:55 am 03:55 Mostly Cloudy 66 19 66 19 100 100 NE 7 11 30.01 1016 10 16.0934 0 0
4:15 am 04:15 Cloudy 68 20 66 19 94 94 NNE 7 11 30.01 1016 10 16.0934 0 0
4:35 am 04:35 Cloudy 68 20 68 20 100 100 NNE 7 11 30.01 1016 10 16.0934 0 0
4:55 am 04:55 Cloudy 68 20 68 20 100 100 NNE 7 11 30.01 1016 10 16.0934 0 0
5:15 am 05:15 Cloudy 68 20 68 20 100 100 NE 7 11 30 1016 10 16.0934 0 0
5:35 am 05:35 Cloudy 66 19 66 19 100 100 NNE 6 9 30 1016 10 16.0934 0 0
5:55 am 05:55 Cloudy 66 19 66 19 100 100 NE 6 9 30.01 1016 10 16.0934 0 0
6:15 am 06:15 Cloudy 66 19 66 19 100 100 NE 3 6 30.01 1016 7 11.26538 0 0
6:35 am 06:35 Cloudy 66 19 66 19 100 100 NNE 6 9 30.01 1016 7 11.26538 0 0
6:55 am 06:55 Cloudy 66 19 66 19 100 100 NNE 7 11 30.02 1017 5 8.0467 0 0
7:15 am 07:15 Cloudy 66 19 66 19 100 100 NNE 10 17 30.02 1017 5 8.0467 0 0
7:35 am 07:35 Cloudy 66 19 66 19 100 100 NNE 8 13 30.02 1017 5 8.0467 0 0
7:55 am 07:55 Cloudy 66 19 66 19 100 100 NNE 7 11 30.03 1017 5 8.0467 0 0
8:15 am 08:15 Cloudy 68 20 66 19 94 94 NE 8 13 30.03 1017 5 8.0467 0 0
8:35 am 08:35 Cloudy 68 20 66 19 94 94 NNE 8 13 30.03 1017 5 8.0467 0 0
8:55 am 08:55 Cloudy 68 20 66 19 94 94 NE 8 13 30.04 1017 5 8.0467 0 0
9:15 am 09:15 Cloudy 68 20 68 20 100 100 NNE 7 11 30.03 1017 7 11.26538 0 0
9:35 am 09:35 Cloudy 70 21 68 20 94 94 undefined N/A 30.03 1017 7 11.26538 0 0
9:55 am 09:55 Cloudy 70 21 68 20 94 94 NNE 7 11 30.03 1017 7 11.26538 0 0
10:15 am 10:15 Cloudy 72 22 68 20 88 88 NNE 6 9 30.03 1017 10 16.0934 0 0
10:35 am 10:35 Cloudy 72 22 68 20 88 88 NE 5 7 30.03 1017 10 16.0934 0 0
10:55 am 10:55 Cloudy 73 23 68 20 83 83 ENE 8 13 30.03 1017 10 16.0934 0 0
11:15 am 11:15 Cloudy 77 25 68 20 74 74 NNE 3 6 30.01 1016 10 16.0934 0 0
11:35 am 11:35 Mostly Cloudy 75 24 70 21 83 83 NE 5 7 30.02 1016 10 16.0934 0 0
11:55 am 11:55 Mostly Cloudy 77 25 68 20 74 74 NE 7 11 30 1016 10 16.0934 0 0
12:15 pm 12:15 Cloudy 77 25 70 21 79 79 Calm 30 1016 10 16.0934 0 0
12:35 pm 12:35 Mostly Cloudy 79 26 70 21 74 74 NE 3 6 29.99 1016 10 16.0934 0 0
12:55 pm 12:55 Mostly Cloudy 81 27 70 21 70 70 NE 5 7 29.99 1016 10 16.0934 0 0
1:15 pm 13:15 Mostly Cloudy 79 26 68 20 70 70 NE 6 9 29.98 1015 10 16.0934 0 0
1:35 pm 13:35 Mostly Cloudy 81 27 68 20 66 66 E 5 7 29.98 1015 10 16.0934 0 0
1:55 pm 13:55 Mostly Cloudy 81 27 68 20 66 66 ENE 8 13 29.98 1015 10 16.0934 0 0
2:15 pm 14:15 Mostly Cloudy 82 28 68 20 62 62 NE 7 11 29.96 1015 10 16.0934 0 0
2:35 pm 14:35 Cloudy 82 28 70 21 66 66 NE 8 13 29.96 1015 10 16.0934 0 0
2:55 pm 14:55 Cloudy 82 28 68 20 62 62 NE 5 7 29.96 1015 10 16.0934 0 0
3:15 pm 15:15 Cloudy 82 28 70 21 66 66 NE 5 7 29.95 1014 10 16.0934 0 0
3:35 pm 15:35 Cloudy 82 28 70 21 66 66 NE 3 6 29.95 1014 10 16.0934 0 0
3:55 pm 15:55 Mostly Cloudy 82 28 70 21 66 66 NE 7 11 29.94 1014 10 16.0934 0 0
4:15 pm 16:15 Mostly Cloudy 82 28 70 21 66 66 NNE 3 6 29.93 1014 10 16.0934 0 0
4:35 pm 16:35 Mostly Cloudy 84 29 70 21 62 62 NE 5 7 29.93 1014 10 16.0934 0 0
4:55 pm 16:55 Cloudy 84 29 70 21 62 62 NE 8 13 29.93 1014 10 16.0934 0 0
5:15 pm 17:15 Cloudy 82 28 70 21 66 66 ENE 7 11 29.93 1014 10 16.0934 0 0
5:35 pm 17:35 Cloudy 81 27 70 21 70 70 NE 7 11 29.93 1014 10 16.0934 0 0
5:55 pm 17:55 Cloudy 81 27 72 22 74 74 ENE 14 22 29.94 1014 10 16.0934 0 0
6:15 pm 18:15 Mostly Cloudy 79 26 70 21 74 74 ENE 7 11 29.94 1014 10 16.0934 0 0
6:35 pm 18:35 Mostly Cloudy 77 25 68 20 74 74 E 6 9 29.94 1014 10 16.0934 0 0
6:55 pm 18:55 Cloudy 77 25 70 21 79 79 ENE 5 7 29.95 1014 10 16.0934 0 0
7:15 pm 19:15 Cloudy 77 25 70 21 79 79 Calm 29.95 1014 10 16.0934 0 0
7:35 pm 19:35 Mostly Cloudy 77 25 70 21 79 79 ESE 10 17 29.95 1014 10 16.0934 0 0
7:55 pm 19:55 Partly Cloudy 77 25 70 21 79 79 Calm 29.96 1015 10 16.0934 0 0
8:15 pm 20:15 Partly Cloudy 77 25 70 21 79 79 ESE 8 13 29.96 1015 10 16.0934 0 0
8:35 pm 20:35 Partly Cloudy 77 25 72 22 83 83 SE 7 11 29.98 1015 10 16.0934 0 0
8:55 pm 20:55 Mostly Cloudy 77 25 72 22 83 83 SE 12 19 29.99 1016 10 16.0934 0 0
9:15 pm 21:15 Cloudy 75 24 70 21 83 83 E 7 11 30.01 1016 10 16.0934 0 0
9:35 pm 21:35 Cloudy 75 24 70 21 83 83 ENE 9 15 30.02 1016 10 16.0934 0 0
9:55 pm 21:55 Cloudy 72 22 70 21 94 94 NE 8 13 30.02 1017 10 16.0934 0 0
10:15 pm 22:15 Cloudy 70 21 68 20 94 94 NE 7 11 30.02 1017 7 11.26538 0.01 0.254
10:35 pm 22:35 Cloudy 68 20 68 20 100 100 ENE 5 7 30.01 1016 10 16.0934 0.03 0.762
10:55 pm 22:55 Cloudy 68 20 68 20 100 100 Calm 30.01 1016 10 16.0934 0.03 0.762
11:15 pm 23:15 Cloudy 70 21 68 20 94 94 W 3 6 30 1016 10 16.0934 0 0
11:35 pm 23:35 Cloudy 68 20 68 20 100 100 Calm 30 1016 10 16.0934 0 0
11:55 pm 23:55 Cloudy 68 20 68 20 100 100 Calm 30 1016 10 16.0934 0 0

Powered by AerisWeather